Tracking 17154 objects as of 3-August-2015
HD Live streaming from Space Station

ARTEMIS

Track ARTEMIS now!
ARTEMIS is classified as:


NORAD ID: 26863
Int'l Code: 2001-029A
Perigee: 35,780.7 km
Apogee: 35,803.8 km
Inclination: 11.9 °
Period: 1,436.0 minutes
Semi major axis: 42163 km
RCS: 10 m2 (large)
Launch date: July 12, 2001
Source: European Space Agency (ESA)

An 18-month rescue mission recovered the satellite; develop European capabilities in satellite communications; test new technologies; support development of European navigation system (EGNOS, c. 2010).
Your satellite tracking list
Your tracking list is empty





NASA's NSSDC Master Catalog

Two Line Element Set (TLE):
1 26863U 01029A   15214.75669811  .00000094  00000-0  00000+0 0  9995
2 26863 011.8997 040.5099 0002732 145.6610 058.7278 01.00277160 52576

Source of the keplerian elements: AFSPC

N2YO: 318